Location: Garzáin
(43.1301°N, 1.5373°W)
Time: 01:24:27
(UTC+00:00)

Cosmos 1459 Rocket - Visible Passes

Search period start: 19 November 2025 00:00
Search period end: 29 November 2025 00:00
Orbit: 937 x 997 km, 83.0° (Epoch: 18 November)

Date Brightness Start Highest point End Pass type
(mag) Time Alt. Az. Time Alt. Az. Time Alt. Az.
19 Nov 5.7 17:14:07 10° SW 17:19:50 35° WNW 17:25:37 10° N visible
20 Nov 6.4 17:38:21 10° WSW 17:43:03 22° WNW 17:47:49 10° NNW visible
21 Nov 6.7 18:03:47 10° W 18:06:27 13° WNW 18:09:08 10° NW visible
23 Nov 6.0 17:00:54 10° SW 17:06:14 28° WNW 17:11:38 10° NNW visible
24 Nov 6.5 17:25:33 10° WSW 17:29:31 17° WNW 17:33:33 10° NNW visible
28 Nov 6.6 17:13:07 10° W 17:16:02 13° WNW 17:18:58 10° NW visible
